星链-2150 (STARLINK-2150 )

导读 | 星芒AI

STARLINK-2150 是 SpaceX Starlink 卫星互联网项目中的第2150颗卫星,属于“星链”计划的第二代卫星群。该卫星采用先进设计,旨在提供更高速、低延迟的全球互联网服务。它运行在近地轨道,支持全球用户接入高速网络,尤其在偏远地区具有重要意义。STARLINK-2150 配备高效通信设备和推进系统,有助于提升 Starlink 网络的稳定性和覆盖范围。

基本信息
目录编号:
47739
目录名称:
STARLINK-2150
国际标识:
2021-017T
轨道中心:
EARTH
卫星名称:
星链-2150
卫星全名:
星链-2150 (STARLINK-2150 )
卫星状态:
在轨 (已飞行1749 天)
发射日期:
2021-03-04 UTC
国别 :
美国 (US)
星等 :
--
轨道信息
数据来源 国际轨道数据 AOE轨道数据
星历时间 2025-12-16T10:35:20+0800
21小时前
查看轨道信息
2025-12-16T15:00:00+0800
17小时前
查看轨道信息
半长轴 6925.357km 6925.364km
偏心率 0.0001466 0.0001279
轨道倾角 53.053° 53.053°
近地点辐角 84.585° 71.230°
升交点赤经 241.831° 241.010°
平近点角 275.530° 206.198°
近地点 546.206km 546.343km
远地点 548.238km 548.115km
周期 95.592分钟 95.592分钟
每日圈数 15.063974 15.063951
详细信息
固有亮度:
5
最大亮度:
2.5
卫星平台:
Starlink V1.0
覆盖范围:
全球
运营商:
太空探索技术公司
运营商所在国:
美国
制造商(研发单位):
太空探索技术公司
制造商所在国:
美国
使用方式:
暂无
卫星简介
星链(Starlink)计划是由太空探索技术公司(SpaceX)提出的一个巨型低轨卫星互联网星座项目,计划在2019年至2024年间在太空搭建由约1.2万颗卫星组成的“星链”网络,其中1584颗将部署在地球上空550千米处的近地轨道,并从2020年开始工作。该卫星仍在工作。
2D轨道图
3D轨道图
轨道高度分析图
轨道倾角分析图
轨道综合分析图
查看轨道综合分析图